User: anonymous   Login
Location: Voyageurs National Park
(48.5020°N, 92.9292°W)
Time: 01:32:02
(UTC-05:00)
Language:

Terra - Orbit

View from above orbital plane
View from above orbital plane
View from above satellite
View from above satellite

Ground track
Ground track

The orbit data is extracted from the following two-line orbital elements,

1 25994U 99068A   16207.81915065 -.00000019  00000-0  58310-5 0  9995
2 25994  98.2072 281.5729 0001153  61.8009 298.3307 14.57118089883147
Epoch (UTC): 25 July 2016 19:39:34
Eccentricity: 0.0001153
inclination: 98.2072°
perigee height: 701 km
apogee height: 703 km
right ascension of ascending node: 281.5729°
argument of perigee: 61.8009°
revolutions per day: 14.57118089
mean anomaly at epoch: 298.3307°
orbit number at epoch: 88314

The dashed part of the orbit path shows where the satellite is in the earth's shadow,  

DLR